Ozark, AL

6:59 PM CDT on May 27, 2017 (GMT -0500)
Cairns Army Air Field

Weather History for KOZR - January, 2012

Change the Weather History Date:

Wednesday, January 11, 2012

  Actual Average Record
Temperature  
Mean Temperature 56 °F -  
Max Temperature 66 °F 58 °F 79 °F (2013)
Min Temperature 44 °F 36 °F 24 °F (2004)
Degree Days  
Heating Degree Days 10    
Growing Degree Days 6 (Base 50)    
Moisture  
Dew Point 55 °F    
Average Humidity 85    
Maximum Humidity 100    
Minimum Humidity 51    
Precipitation  
Precipitation 0.37 in - - ()
Sea Level Pressure  
Sea Level Pressure 29.71 in    
Wind  
Wind Speed 11 mph (SSW)    
Max Wind Speed 21 mph    
Max Gust Speed 26 mph    
Visibility 9 miles    
Events Rain    
Averages and records for this station are not official NWS values.
T = Trace of Precipitation, MM = Missing Value Source: NWS Daily Summary

Daily Weather History Graph

Daily Weather History Graph

Search for Another Location

Airport or City:

Trip Planner

Search our weather history database for the weather conditions in past years. The results will help you decide how hot, cold, wet, or windy it might be!

Date:

Astronomy

Jan. 11, 2012 Rise Set
Actual Time 6:42 AM CST 4:58 PM CST
Civil Twilight 6:16 AM CST 5:25 PM CST
Nautical Twilight 5:46 AM CST 5:55 PM CST
Astronomical Twilight 5:16 AM CST 6:24 PM CST
Moon 7:43 PM CST (1/11) 8:05 AM CST (1/11)
Length of Visible Light 11h 09m
Length of Day
10h 16m
Waning Gibbous, 93% of the Moon is Illuminated
Jan 11
Waning Gibbous
Jan 16
Last Quarter
Jan 23
New
Jan 30
First Quarter
Feb 7
Full

Hourly Weather History & Observations

Time (CST) Temp. Windchill Dew Point Humidity Pressure Visibility Wind Dir Wind Speed Gust Speed Precip Events Conditions
12:07 AM 62.6 °F - 59.0 °F 88% 29.76 in 10.0 mi SE 8.1 mph - N/A   Overcast
12:29 AM 62.6 °F - 60.8 °F 94% 29.74 in 9.0 mi ESE 9.2 mph - N/A Rain Light Rain
12:37 AM 62.6 °F - 60.8 °F 94% 29.73 in 7.0 mi SE 6.9 mph - N/A Rain Light Rain
12:45 AM 62.6 °F - 60.8 °F 94% 29.73 in 9.0 mi ESE 6.9 mph - N/A   Overcast
12:55 AM 62.6 °F - 60.6 °F 93% 29.72 in 10.0 mi ESE 9.2 mph - 0.01 in   Overcast
12:56 AM 62.6 °F - 60.8 °F 94% 29.72 in 10.0 mi ESE 9.2 mph - N/A   Overcast
12:58 AM 62.6 °F - 60.8 °F 94% 29.71 in 10.0 mi ESE 10.4 mph - N/A   Overcast
1:31 AM 62.6 °F - 60.8 °F 94% 29.69 in 10.0 mi SE 11.5 mph - N/A   Mostly Cloudy
1:37 AM 62.6 °F - 60.8 °F 94% 29.69 in 10.0 mi SE 10.4 mph - N/A   Mostly Cloudy
1:55 AM 64.2 °F - 61.7 °F 91% 29.68 in 10.0 mi SE 13.8 mph 19.6 mph N/A   Mostly Cloudy
2:05 AM 64.4 °F - 62.6 °F 94% 29.68 in 10.0 mi SSE 11.5 mph 24.2 mph N/A   Overcast
2:06 AM 64.4 °F - 62.6 °F 94% 29.68 in 10.0 mi SSE 13.8 mph 24.2 mph N/A   Overcast
2:26 AM 66.2 °F - 62.6 °F 88% 29.67 in 10.0 mi SSE 13.8 mph - N/A Rain Light Rain
2:49 AM 64.4 °F - 62.6 °F 94% 29.66 in 10.0 mi SSE 10.4 mph - N/A   Overcast
2:52 AM 64.4 °F - 62.6 °F 94% 29.65 in 10.0 mi SSE 10.4 mph - N/A Rain Light Rain
2:55 AM 65.1 °F - 63.1 °F 93% 29.65 in 8.0 mi SSE 11.5 mph - 0.02 in Rain Light Rain
3:08 AM 64.4 °F - 62.6 °F 94% 29.65 in 4.0 mi SSE 8.1 mph - N/A Rain Light Rain
3:16 AM 64.4 °F - 64.4 °F 100% 29.65 in 8.0 mi South 11.5 mph - N/A Rain Light Rain
3:23 AM 64.4 °F - 64.4 °F 100% 29.65 in 3.0 mi WSW 12.7 mph - N/A Rain Light Rain
3:24 AM 64.4 °F - 64.4 °F 100% 29.66 in 2.0 mi WSW 12.7 mph - N/A Rain Rain
3:25 AM 64.4 °F - 64.4 °F 100% 29.65 in 1.5 mi WSW 11.5 mph - N/A Rain Heavy Rain
3:26 AM 64.4 °F - 64.4 °F 100% 29.65 in 1.2 mi SW 9.2 mph - N/A Rain Heavy Rain
3:33 AM 64.4 °F - 64.4 °F 100% 29.65 in 1.5 mi SSW 11.5 mph - N/A Rain Light Rain
3:34 AM 64.4 °F - 64.4 °F 100% 29.65 in 2.0 mi South 12.7 mph - N/A Rain Light Rain
3:35 AM 64.4 °F - 64.4 °F 100% 29.65 in 3.0 mi South 12.7 mph 19.6 mph N/A Rain Light Rain
3:48 AM 64.4 °F - 64.4 °F 100% 29.64 in 10.0 mi South 11.5 mph 21.9 mph N/A   Mostly Cloudy
3:50 AM 64.4 °F - 64.4 °F 100% 29.64 in 10.0 mi South 10.4 mph 21.9 mph N/A   Mostly Cloudy
3:53 AM 64.4 °F - 64.4 °F 100% 29.64 in 10.0 mi South 12.7 mph 21.9 mph N/A   Mostly Cloudy
3:55 AM 64.9 °F - 63.3 °F 94% 29.63 in 10.0 mi South 13.8 mph - 0.30 in   Scattered Clouds
4:29 AM 62.6 °F - 60.8 °F 94% 29.67 in 10.0 mi SW 18.4 mph 24.2 mph N/A   Mostly Cloudy
4:32 AM 62.6 °F - 60.8 °F 94% 29.67 in 10.0 mi SW 17.3 mph 24.2 mph N/A   Mostly Cloudy
4:49 AM 60.8 °F - 57.2 °F 88% 29.68 in 10.0 mi SW 17.3 mph 25.3 mph N/A   Mostly Cloudy
4:55 AM 60.8 °F - 56.3 °F 85% 29.68 in 10.0 mi SW 16.1 mph - 0.01 in   Mostly Cloudy
4:57 AM 60.8 °F - 55.4 °F 82% 29.68 in 10.0 mi SSW 16.1 mph - N/A   Scattered Clouds
5:16 AM 59.0 °F - 53.6 °F 82% 29.70 in 10.0 mi SSW 20.7 mph - N/A   Mostly Cloudy
5:19 AM 59.0 °F - 53.6 °F 82% 29.70 in 10.0 mi SW 18.4 mph 26.5 mph N/A   Scattered Clouds
5:26 AM 57.2 °F - 51.8 °F 82% 29.71 in 10.0 mi SW 15.0 mph 26.5 mph N/A   Mostly Cloudy
5:55 AM 56.7 °F - 51.6 °F 83% 29.72 in 10.0 mi WSW 11.5 mph 24.2 mph N/A   Overcast
6:55 AM 55.2 °F - 48.7 °F 79% 29.74 in 10.0 mi SW 15.0 mph 25.3 mph N/A   Mostly Cloudy
7:54 AM 53.6 °F - 46.4 °F 77% 29.75 in 10.0 mi SW 11.5 mph - N/A   Overcast
7:55 AM 54.3 °F - 46.9 °F 76% 29.75 in 10.0 mi SW 12.7 mph - N/A   Overcast
8:39 AM 55.4 °F - 48.2 °F 77% 29.76 in 10.0 mi SW 11.5 mph - N/A   Mostly Cloudy
8:55 AM 55.0 °F - 47.7 °F 76% 29.77 in 10.0 mi SW 9.2 mph - N/A   Overcast
9:11 AM 55.4 °F - 46.4 °F 72% 29.77 in 10.0 mi SW 19.6 mph 26.5 mph N/A   Scattered Clouds
9:55 AM 57.6 °F - 44.2 °F 61% 29.77 in 10.0 mi WSW 15.0 mph 20.7 mph 0.01 in   Mostly Cloudy
10:55 AM 57.4 °F - 43.3 °F 59% 29.76 in 10.0 mi SW 15.0 mph 21.9 mph 0.02 in   Scattered Clouds
11:55 AM 59.0 °F - 41.7 °F 53% 29.73 in 10.0 mi SW 15.0 mph 23.0 mph N/A   Clear
12:55 PM 60.4 °F - 42.3 °F 51% 29.72 in 10.0 mi WSW 15.0 mph - N/A   Scattered Clouds
1:55 PM 61.7 °F - 43.2 °F 51% 29.72 in 10.0 mi West 11.5 mph - N/A   Partly Cloudy
2:55 PM 60.8 °F - 43.0 °F 52% 29.73 in 10.0 mi West 8.1 mph - N/A   Mostly Cloudy
3:55 PM 59.9 °F - 43.0 °F 54% 29.73 in 10.0 mi West 10.4 mph - N/A   Clear
4:55 PM 55.9 °F - 43.7 °F 63% 29.74 in 10.0 mi West 8.1 mph - N/A   Partly Cloudy
5:55 PM 52.9 °F - 42.6 °F 68% 29.75 in 10.0 mi West 4.6 mph - N/A   Clear
6:55 PM 49.8 °F - 42.8 °F 77% 29.77 in 10.0 mi Calm Calm - N/A   Clear
7:55 PM 48.0 °F - 42.3 °F 80% 29.78 in 10.0 mi Calm Calm - N/A   Clear
8:55 PM 45.0 °F 43.5 °F 43.0 °F 93% 29.80 in 10.0 mi SSE 3.5 mph - N/A   Clear
9:55 PM 46.0 °F 42.5 °F 42.6 °F 88% 29.80 in 10.0 mi South 6.9 mph - N/A   Clear
10:55 PM 45.0 °F - 42.6 °F 91% 29.80 in 10.0 mi Calm Calm - N/A   Clear
11:55 PM 44.6 °F 43.1 °F 42.1 °F 91% 29.81 in 10.0 mi SW 3.5 mph - N/A   Clear